Weather History for KBLV - November, 2011

Change the Weather History Date:

Wednesday, November 2, 2011

  Actual Average Record
Temperature  
Mean Temperature 58 °F -  
Max Temperature 73 °F 63 °F 82 °F (1987)
Min Temperature 43 °F 43 °F 21 °F (1951)
Degree Days  
Heating Degree Days 7    
Growing Degree Days 8 (Base 50)    
Moisture  
Dew Point 42 °F    
Average Humidity 56    
Maximum Humidity 75    
Minimum Humidity 36    
Precipitation  
Precipitation 0.00 in - - ()
Sea Level Pressure  
Sea Level Pressure 30.05 in    
Wind  
Wind Speed 5 mph (SSE)    
Max Wind Speed 13 mph    
Max Gust Speed 21 mph    
Visibility 10 miles    
Events      
Averages and records for this station are not official NWS values.
T = Trace of Precipitation, MM = Missing Value Source: NWS Daily Summary

Daily Weather History Graph

Daily Weather History Graph

Search for Another Location

Airport or City:

Trip Planner

Search our weather history database for the weather conditions in past years. The results will help you decide how hot, cold, wet, or windy it might be!

Date:

Astronomy

Nov. 02, 2011 Rise Set
Actual Time 7:26 AM CDT 5:58 PM CDT
Civil Twilight 6:59 AM CDT 6:26 PM CDT
Nautical Twilight 6:27 AM CDT 6:57 PM CDT
Astronomical Twilight 5:56 AM CDT 7:28 PM CDT
Moon 1:46 PM CDT (11/2) No Moon Set
Length of Visible Light 11h 26m
Length of Day
10h 31m
Waxing Crescent, 50% of the Moon is Illuminated
Nov 2
Waxing Crescent
Nov 10
Full
Nov 18
Last Quarter
Nov 25
New
Dec 2
First Quarter

Hourly Weather History & Observations

Time (CDT) Temp. Windchill Dew Point Humidity Pressure Visibility Wind Dir Wind Speed Gust Speed Precip Events Conditions
12:55 AM 48.2 °F - 34.9 °F 60% 30.12 in 10.0 mi SSE 4.6 mph - N/A   Clear
1:55 AM 48.2 °F - 34.2 °F 58% 30.12 in 10.0 mi SSE 5.8 mph - N/A   Clear
2:55 AM 47.1 °F - 34.2 °F 61% 30.13 in 10.0 mi Calm Calm - N/A   Clear
3:55 AM 44.8 °F - 34.9 °F 68% 30.14 in 10.0 mi Calm Calm - N/A   Clear
4:55 AM 43.5 °F - 35.2 °F 73% 30.14 in 10.0 mi Calm Calm - N/A   Clear
5:55 AM 44.1 °F 41.5 °F 36.5 °F 75% 30.15 in 10.0 mi SSE 4.6 mph - N/A   Clear
6:55 AM 45.5 °F 43.2 °F 37.6 °F 74% 30.14 in 10.0 mi SSE 4.6 mph - N/A   Clear
7:55 AM 46.9 °F - 38.3 °F 72% 30.14 in 10.0 mi SSE 5.8 mph - N/A   Clear
8:55 AM 52.3 °F - 41.4 °F 66% 30.14 in 10.0 mi Variable 4.6 mph - N/A   Clear
9:55 AM 57.9 °F - 42.8 °F 57% 30.14 in 10.0 mi Variable 5.8 mph - N/A   Clear
10:55 AM 63.9 °F - 43.0 °F 47% 30.12 in 10.0 mi Variable 6.9 mph - N/A   Clear
11:55 AM 66.2 °F - 44.6 °F 46% 30.10 in 10.0 mi Variable 5.8 mph - N/A   Clear
12:55 PM 68.7 °F - 45.0 °F 42% 30.06 in 10.0 mi South 9.2 mph - N/A   Clear
1:55 PM 72.0 °F - 45.7 °F 39% 30.01 in 10.0 mi South 11.5 mph 20.7 mph N/A   Clear
2:55 PM 73.4 °F - 44.8 °F 36% 29.99 in 10.0 mi South 12.7 mph 19.6 mph N/A   Clear
3:55 PM 71.2 °F - 44.6 °F 38% 29.98 in 10.0 mi SSE 12.7 mph 16.1 mph N/A   Clear
4:55 PM 68.0 °F - 45.1 °F 44% 29.99 in 10.0 mi South 5.8 mph 19.6 mph N/A   Clear
5:55 PM 64.9 °F - 46.2 °F 51% 29.99 in 10.0 mi South 8.1 mph - N/A   Clear
6:55 PM 63.1 °F - 48.0 °F 58% 29.99 in 10.0 mi SSE 9.2 mph - N/A   Clear
7:55 PM 60.8 °F - 46.8 °F 60% 29.99 in 10.0 mi Variable 5.8 mph - N/A   Clear
8:55 PM 59.9 °F - 44.6 °F 57% 29.96 in 10.0 mi SSE 6.9 mph - N/A   Clear
9:55 PM 60.3 °F - 44.1 °F 55% 29.94 in 10.0 mi Variable 5.8 mph - N/A   Clear
10:55 PM 59.2 °F - 43.3 °F 56% 29.91 in 10.0 mi Variable 5.8 mph - N/A   Clear
11:55 PM 58.6 °F - 42.3 °F 55% 29.89 in 10.0 mi SSE 9.2 mph - N/A   Clear